| time (UTC) | temp F | wind direction | speed MPH | gust MPH | rain 1hr in | rain 24hr in | rain mn in | humidity % | barometer mb |
| 20260502163603 | 54 | 177 | 4.0 | 8.0 | 0.00 | 0.10 | 0.10 | 85 | 1011.7 |
| 20260502162703 | 54 | 179 | 5.0 | 9.0 | 0.00 | 0.10 | 0.10 | 84 | 1011.7 |
| 20260502161803 | 54 | 173 | 6.0 | 9.0 | 0.00 | 0.10 | 0.10 | 84 | 1011.7 |
| 20260502160903 | 55 | 173 | 5.0 | 9.0 | 0.00 | 0.10 | 0.10 | 84 | 1011.6 |
| 20260502151803 | 55 | 161 | 6.0 | 10.0 | 0.00 | 0.10 | 0.10 | 85 | 1012.0 |
| 20260502150903 | 54 | 159 | 8.0 | 11.0 | 0.00 | 0.10 | 0.10 | 85 | 1012.1 |
| 20260502123603 | 54 | 158 | 9.0 | 13.0 | 0.00 | 0.10 | 0.10 | 88 | 1013.3 |
| 20260502122703 | 54 | 158 | 10.0 | 17.0 | 0.00 | 0.10 | 0.10 | 88 | 1013.4 |
| 20260502121803 | 55 | 158 | 10.0 | 14.0 | 0.00 | 0.10 | 0.10 | 88 | 1013.5 |
| 20260502120903 | 55 | 156 | 9.0 | 13.0 | 0.00 | 0.10 | 0.10 | 87 | 1013.6 |
| 20260502115403 | 56 | 148 | 8.0 | 12.0 | 0.00 | 0.10 | 0.10 | 86 | 1013.5 |
| 20260502114503 | 57 | 153 | 7.0 | 10.0 | 0.00 | 0.10 | 0.10 | 87 | 1013.5 |
| 20260502113603 | 56 | 147 | 9.0 | 12.0 | 0.00 | 0.10 | 0.10 | 87 | 1013.7 |
| 20260502112703 | 55 | 149 | 9.0 | 13.0 | 0.00 | 0.10 | 0.10 | 87 | 1013.8 |
| 20260502111803 | 56 | 151 | 8.0 | 13.0 | 0.00 | 0.10 | 0.10 | 87 | 1013.8 |
| 20260502110903 | 56 | 152 | 7.0 | 13.0 | 0.00 | 0.10 | 0.10 | 89 | 1013.9 |
| 20260502110003 | 55 | 151 | 8.0 | 13.0 | 0.00 | 0.10 | 0.10 | 89 | 1013.9 |
| 20260502105403 | 55 | 148 | 8.0 | 13.0 | 0.00 | 0.10 | 0.10 | 90 | 1014.0 |
| 20260502104503 | 54 | 147 | 9.0 | 13.0 | 0.00 | 0.10 | 0.10 | 89 | 1014.0 |
| 20260502103603 | 54 | 146 | 9.0 | 13.0 | 0.00 | 0.10 | 0.10 | 89 | 1014.0 |
| 20260502102703 | 54 | 151 | 8.0 | 12.0 | 0.00 | 0.10 | 0.10 | 88 | 1013.9 |
| 20260502101803 | 55 | 162 | 6.0 | 12.0 | 0.00 | 0.10 | 0.10 | 88 | 1014.0 |
| 20260502100903 | 55 | 175 | 7.0 | 10.0 | 0.00 | 0.10 | 0.10 | 90 | 1014.0 |
| 20260502090903 | 53 | 192 | 4.0 | 10.0 | 0.00 | 0.10 | 0.10 | 91 | 1014.3 |
| 20260502070903 | 52 | 179 | 8.0 | 15.0 | 0.03 | 0.11 | 0.10 | 92 | 1014.3 |
| 20260502070003 | 52 | 175 | 9.0 | 17.0 | 0.03 | 0.11 | 0.10 | 92 | 1014.2 |
| 20260502065403 | 52 | 175 | 9.0 | 13.0 | 0.04 | 0.11 | 0.10 | 92 | 1014.2 |
| 20260502064503 | 52 | 176 | 9.0 | 15.0 | 0.03 | 0.10 | 0.09 | 92 | 1014.3 |
| 20260502063603 | 52 | 175 | 9.0 | 15.0 | 0.02 | 0.09 | 0.09 | 92 | 1014.3 |
| 20260502062703 | 52 | 179 | 8.0 | 14.0 | 0.01 | 0.08 | 0.07 | 92 | 1014.3 |
| 20260502061803 | 52 | 178 | 8.0 | 15.0 | 0.01 | 0.08 | 0.07 | 92 | 1014.3 |
| 20260502060903 | 52 | 170 | 11.0 | 17.0 | 0.01 | 0.08 | 0.07 | 92 | 1014.3 |
| 20260502060003 | 52 | 169 | 11.0 | 18.0 | 0.01 | 0.08 | 0.07 | 92 | 1014.2 |
| 20260502055403 | 52 | 171 | 10.0 | 17.0 | 0.00 | 0.07 | 0.06 | 92 | 1014.2 |
| 20260502054503 | 52 | 166 | 11.0 | 17.0 | 0.01 | 0.07 | 0.06 | 92 | 1014.2 |
| 20260502053603 | 52 | 169 | 10.0 | 17.0 | 0.01 | 0.07 | 0.06 | 92 | 1014.2 |
| 20260502052703 | 52 | 174 | 10.0 | 17.0 | 0.02 | 0.07 | 0.06 | 92 | 1014.3 |
| 20260502051803 | 52 | 174 | 11.0 | 17.0 | 0.02 | 0.07 | 0.06 | 92 | 1014.3 |
| 20260502050903 | 52 | 167 | 10.0 | 16.0 | 0.03 | 0.07 | 0.06 | 92 | 1014.3 |
| 20260502050003 | 52 | 167 | 10.0 | 17.0 | 0.03 | 0.07 | 0.06 | 92 | 1014.3 |
| 20260502045403 | 52 | 169 | 10.0 | 17.0 | 0.03 | 0.07 | 0.06 | 92 | 1014.4 |
| 20260502044504 | 52 | 170 | 10.0 | 19.0 | 0.03 | 0.06 | 0.06 | 92 | 1014.4 |
| 20260502043603 | 52 | 166 | 10.0 | 17.0 | 0.03 | 0.06 | 0.06 | 92 | 1014.5 |
| 20260502042703 | 52 | 169 | 10.0 | 15.0 | 0.02 | 0.05 | 0.04 | 92 | 1014.6 |
| 20260502041803 | 52 | 161 | 12.0 | 22.0 | 0.02 | 0.05 | 0.04 | 92 | 1014.7 |
| 20260502040903 | 52 | 160 | 11.0 | 16.0 | 0.01 | 0.04 | 0.03 | 92 | 1014.7 |
| 20260502040003 | 52 | 159 | 10.0 | 16.0 | 0.01 | 0.04 | 0.03 | 92 | 1014.8 |
| 20260502034503 | 52 | 164 | 11.0 | 20.0 | 0.00 | 0.03 | 0.02 | 92 | 1014.9 |
| 20260502033603 | 52 | 166 | 10.0 | 20.0 | 0.00 | 0.03 | 0.02 | 92 | 1014.9 |
| 20260502032703 | 52 | 166 | 10.0 | 16.0 | 0.00 | 0.03 | 0.02 | 91 | 1015.0 |
| 20260502031803 | 52 | 164 | 9.0 | 16.0 | 0.00 | 0.03 | 0.02 | 92 | 1015.1 |
| 20260502030903 | 52 | 163 | 8.0 | 13.0 | 0.00 | 0.03 | 0.02 | 91 | 1015.2 |
| 20260502030003 | 52 | 161 | 8.0 | 13.0 | 0.00 | 0.03 | 0.02 | 91 | 1015.3 |
| 20260502025403 | 53 | 163 | 7.0 | 12.0 | 0.00 | 0.03 | 0.02 | 91 | 1015.4 |
| 20260502024503 | 53 | 166 | 8.0 | 14.0 | 0.00 | 0.03 | 0.02 | 91 | 1015.6 |
| 20260502023603 | 53 | 166 | 8.0 | 12.0 | 0.00 | 0.03 | 0.02 | 91 | 1015.7 |
| 20260502022703 | 53 | 171 | 7.0 | 12.0 | 0.00 | 0.03 | 0.02 | 91 | 1015.7 |
| 20260502021803 | 53 | 170 | 8.0 | 13.0 | 0.00 | 0.03 | 0.02 | 91 | 1015.8 |
| 20260502020903 | 53 | 171 | 7.0 | 13.0 | 0.00 | 0.03 | 0.02 | 91 | 1015.9 |
| 20260502020003 | 53 | 174 | 8.0 | 14.0 | 0.00 | 0.03 | 0.02 | 91 | 1016.0 |
| 20260502015403 | 53 | 174 | 7.0 | 12.0 | 0.00 | 0.03 | 0.02 | 91 | 1016.1 |
| 20260502014503 | 53 | 169 | 8.0 | 14.0 | 0.01 | 0.03 | 0.02 | 91 | 1016.2 |
| 20260502013603 | 53 | 169 | 8.0 | 12.0 | 0.01 | 0.03 | 0.02 | 91 | 1016.2 |
| 20260502012703 | 53 | 175 | 9.0 | 14.0 | 0.01 | 0.03 | 0.02 | 91 | 1016.4 |
| 20260502011803 | 53 | 175 | 10.0 | 14.0 | 0.01 | 0.03 | 0.02 | 91 | 1016.5 |
| 20260502010903 | 53 | 175 | 10.0 | 14.0 | 0.01 | 0.03 | 0.02 | 91 | 1016.5 |
| 20260502010003 | 53 | 171 | 9.0 | 17.0 | 0.01 | 0.03 | 0.02 | 91 | 1016.6 |
| 20260502005403 | 53 | 176 | 9.0 | 15.0 | 0.01 | 0.03 | 0.02 | 91 | 1016.7 |
| 20260502004503 | 53 | 175 | 10.0 | 15.0 | 0.00 | 0.02 | 0.02 | 91 | 1016.8 |
| 20260502003603 | 53 | 174 | 9.0 | 14.0 | 0.00 | 0.02 | 0.02 | 91 | 1016.8 |
| 20260502002703 | 53 | 170 | 8.0 | 14.0 | 0.00 | 0.02 | 0.02 | 91 | 1016.9 |
| 20260502001803 | 53 | 173 | 8.0 | 14.0 | 0.00 | 0.02 | 0.02 | 91 | 1016.9 |
| 20260502000903 | 53 | 170 | 8.0 | 14.0 | 0.01 | 0.02 | 0.02 | 91 | 1017.0 |
| 20260502000003 | 53 | 167 | 9.0 | 14.0 | 0.02 | 0.02 | 0.02 | 91 | 1017.1 |
| 20260501235403 | 53 | 164 | 9.0 | 14.0 | 0.02 | 0.02 | 0.02 | 91 | 1017.1 |
| 20260501234503 | 53 | 170 | 9.0 | 14.0 | 0.02 | 0.02 | 0.02 | 91 | 1017.0 |
| 20260501233603 | 53 | 169 | 9.0 | 16.0 | 0.02 | 0.02 | 0.02 | 91 | 1017.2 |
| 20260501232703 | 53 | 168 | 10.0 | 16.0 | 0.02 | 0.02 | 0.02 | 91 | 1017.2 |
| 20260501231803 | 53 | 163 | 10.0 | 17.0 | 0.02 | 0.02 | 0.02 | 91 | 1017.3 |
| 20260501230903 | 53 | 162 | 11.0 | 17.0 | 0.01 | 0.02 | 0.01 | 91 | 1017.3 |
| 20260501230003 | 53 | 162 | 10.0 | 16.0 | 0.00 | 0.01 | 0.00 | 91 | 1017.5 |
| 20260501225403 | 53 | 163 | 9.0 | 17.0 | 0.00 | 0.01 | 0.01 | 91 | 1017.5 |
| 20260501224503 | 53 | 161 | 10.0 | 15.0 | 0.00 | 0.01 | 0.01 | 91 | 1017.5 |
| 20260501223603 | 53 | 162 | 10.0 | 16.0 | 0.00 | 0.01 | 0.01 | 91 | 1017.6 |
| 20260501222703 | 53 | 161 | 9.0 | 15.0 | 0.00 | 0.01 | 0.01 | 91 | 1017.7 |
| 20260501221803 | 53 | 165 | 10.0 | 16.0 | 0.00 | 0.01 | 0.01 | 91 | 1017.7 |
| 20260501220903 | 53 | 164 | 9.0 | 15.0 | 0.00 | 0.01 | 0.01 | 91 | 1017.8 |
| 20260501220003 | 53 | 162 | 9.0 | 14.0 | 0.00 | 0.01 | 0.01 | 91 | 1017.9 |
| 20260501215403 | 53 | 161 | 9.0 | 14.0 | 0.00 | 0.01 | 0.01 | 91 | 1018.0 |
| 20260501214503 | 53 | 162 | 8.0 | 14.0 | 0.00 | 0.01 | 0.01 | 91 | 1018.0 |
| 20260501213603 | 53 | 163 | 8.0 | 14.0 | 0.00 | 0.01 | 0.01 | 90 | 1018.0 |
| 20260501212703 | 53 | 164 | 8.0 | 15.0 | 0.00 | 0.01 | 0.01 | 90 | 1018.0 |
| 20260501211803 | 53 | 162 | 7.0 | 12.0 | 0.00 | 0.01 | 0.01 | 90 | 1018.0 |
| 20260501210903 | 53 | 164 | 7.0 | 11.0 | 0.00 | 0.01 | 0.01 | 90 | 1018.0 |
| 20260501210003 | 53 | 165 | 7.0 | 11.0 | 0.00 | 0.01 | 0.01 | 90 | 1018.0 |
| 20260501205403 | 53 | 164 | 7.0 | 11.0 | 0.00 | 0.01 | 0.01 | 90 | 1018.1 |
| 20260501204503 | 53 | 168 | 7.0 | 12.0 | 0.00 | 0.01 | 0.01 | 90 | 1018.1 |
| 20260501203603 | 53 | 173 | 8.0 | 14.0 | 0.00 | 0.01 | 0.01 | 90 | 1018.0 |
| 20260501202703 | 53 | 168 | 8.0 | 13.0 | 0.00 | 0.01 | 0.01 | 90 | 1018.0 |
| 20260501201803 | 53 | 171 | 7.0 | 12.0 | 0.00 | 0.01 | 0.01 | 90 | 1018.1 |
| 20260501200903 | 53 | 173 | 9.0 | 14.0 | 0.00 | 0.01 | 0.01 | 90 | 1018.1 |
| 20260501200003 | 53 | 175 | 8.0 | 13.0 | 0.00 | 0.01 | 0.01 | 90 | 1018.0 |
| 20260501195403 | 53 | 175 | 8.0 | 12.0 | 0.00 | 0.01 | 0.01 | 90 | 1018.0 |
| 20260501194503 | 53 | 176 | 8.0 | 14.0 | 0.00 | 0.01 | 0.01 | 90 | 1018.0 |
| 20260501193618 | 53 | 174 | 9.0 | 14.0 | 0.00 | 0.01 | 0.01 | 90 | 1018.1 |
| 20260501192703 | 53 | 175 | 8.0 | 14.0 | 0.00 | 0.01 | 0.01 | 90 | 1018.1 |
| 20260501191803 | 53 | 176 | 8.0 | 15.0 | 0.00 | 0.01 | 0.01 | 89 | 1018.0 |
| 20260501190903 | 53 | 168 | 8.0 | 13.0 | 0.00 | 0.01 | 0.01 | 89 | 1018.0 |
| 20260501190003 | 54 | 165 | 8.0 | 14.0 | 0.00 | 0.01 | 0.01 | 89 | 1018.0 |
| 20260501185403 | 54 | 164 | 8.0 | 14.0 | 0.00 | 0.02 | 0.01 | 89 | 1018.1 |
| 20260501184504 | 54 | 169 | 7.0 | 13.0 | 0.00 | 0.02 | 0.01 | 89 | 1018.0 |
| 20260501183603 | 54 | 171 | 7.0 | 11.0 | 0.00 | 0.02 | 0.01 | 89 | 1018.1 |
| 20260501182703 | 54 | 179 | 7.0 | 12.0 | 0.00 | 0.02 | 0.01 | 89 | 1018.0 |
| 20260501174503 | 54 | 168 | 7.0 | 12.0 | 0.00 | 0.04 | 0.01 | 89 | 1017.9 |
| 20260501173603 | 54 | 160 | 9.0 | 15.0 | 0.00 | 0.09 | 0.01 | 89 | 1017.9 |
| 20260501172703 | 54 | 163 | 8.0 | 13.0 | 0.00 | 0.13 | 0.01 | 89 | 1017.8 |
| 20260501171803 | 54 | 164 | 8.0 | 12.0 | 0.00 | 0.15 | 0.01 | 89 | 1017.8 |
| 20260501170903 | 54 | 164 | 8.0 | 14.0 | 0.00 | 0.18 | 0.01 | 89 | 1017.7 |